SCP
6 4 2 2 1 1 1 1 0 0 0 0 0 0 0 0 0 0 0 0 0 0 0 0 0 0 0 0 0 0 0 0 0 0 0 0 0 0 0 0 0 0 0
3 1 1 1 0 0 0 0 0 0 0 0 0 0 0 0 0 0 0 0 0 0 0 0 0 0 0 0 0 0 0 0 0 0 0 0 0 0 0 0 0 1 0
1 0 0 0 0 0 0 0 0 0 0 0 0 0 0 0 0 0 0 0 0 0 0 0 0 0 0 0 0 0 0 0 0 0 0 0 0 0 0 0 0 0 0
0 0 0 0 0 0 0 0 0 0 0 0 0 0 0 0 0 0 0 0 0 0 0 0 0 0 0 0 0 0 0 0 0 0 0 0 0 0 0 0 0 0 0
0 0 0 0 0 0 0 0 0 0 0 0 0 0 0 0 0 0 0 0 0 0 0 0 0 0 0 0 0 0 0 0 0 0 0 0 0 0 0 0 0 0 -0
0 0 0 0 0 0 0 0 0 0 0 0 0 0 0 0 0 0 0 0 0 0 0 0 0 0 0 0 0 0 0 0 0 0 0 0 0 0 0 0 0 0 0
0 0 0 0 0 0 0 0 0 0 0 0 0 0 0 0 0 0 0 0 0 0 0 0 0 0 0 0 0 0 0 0 0 0 0 0 0 0 0 0 0 0 0
0 0 0 0 0 0 0 0 0 0 0 0 0 0 0 0 0 0 0 0 0 0 0 0 0 0 0 0 0 0 0 0 0 0 0 0 0 0 0 0 0 0 0
0 0 0 0 0 0 0 0 0 0 0 0 0 0 0 0 0 0 0 0 0 0 0 0 0 0 0 0 0 0 0 0 0 0 0 0 0 0 0 0 0 0 0
0 0 0 0 0 0 0 0 0 0 0 0 0 0 0 0 0 0 0 0 0 0 0 0 0 0 0 0 0 0 0 0 0 0 0 0 0 0 0 0 0 0 0
0 0 0 0 0 0 0 0 0 0 0 0 0 0 0 0 0 0 0 0 0 0 0 0 0 0 0 0 0 0 0 0 0 0 0 0 0 0 0 0 0 0 0
0 0 0 0 0 0 0 0 0 0 0 0 0 0 0 0 0 0 0 0 0 0 0 0 0 0 0 0 0 0 0 -0 -0 -0 -0 -0 -0 -0 0 0 0 0 0
0 0 0 0 0 0 0 0 0 0 0 0 0 0 0 0 0 0 0 0 0 0 0 0 0 0 0 0 0 0 0 0 -0 -0 -0 -0 -0 0 0 0 0 0 0
0 0 0 0 0 0 0 0 0 0 0 0 0 0 0 0 0 0 0 0 0 0 0 0 0 0 0 0 0 0 0 0 -0 0 0 0 0 0 0 0 0 0 0
0 0 0 0 0 0 0 0 0 0 0 0 0 0 0 0 0 0 0 0 0 0 0 -0 0 0 0 0 0 0 0 0 0 0 0 0 0 0 0 0 0 0 0
0 0 0 0 0 0 0 0 0 0 0 0 0 0 0 0 0 0 0 0 0 0 0 0 0 0 0 0 0 0 0 0 0 0 0 0 0 0 0 0 0 0 0
0 0 0 0 0 0 0 0 0 0 0 0 0 0 0 0 0 0 0 0 0 0 0 0 0 0 0 0 0 0 0 0 0 0 0 0 0 0 0 0 0 0 0
0 0 0 0 0 0 0 0 0 0 0 0 0 0 -0 -0 0 0 0 0 0 0 0 0 0 0 0 0 0 0 0 0 0 0 0 0 0 0 0 0 0 0 0
0 0 0 0 0 0 0 0 0 0 0 0 0 0 -0 -0 0 0 0 0 0 0 0 0 0 0 0 0 0 0 0 0 0 0 0 0 0 0 0 0 0 0 0
0 0 0 0 0 0 0 0 0 0 0 0 0 0 0 0 0 0 0 0 0 0 0 0 0 0 0 0 0 0 0 0 0 0 0 0 0 0 0 0 0 0 0
0 0 0 0 0 0 0 0 0 0 0 0 0 0 0 0 0 0 0 0 0 0 0 0 0 -0 -0 0 0 0 0 0 0 0 0 0 0 0 0 0 0 0 0
0 0 0 0 0 0 0 0 0 0 0 0 0 0 0 0 0 0 0 0 0 0 0 -0 -0 -0 -0 0 0 0 0 0 0 0 0 0 0 0 0 0 0 0 0
0 0 0 0 0 0 0 0 0 0 0 0 0 0 0 0 0 0 0 0 0 0 0 -0 -0 -0 -0 -0 0 0 0 0 0 0 0 0 0 0 0 0 0 0 0
0 0 0 0 0 0 0 0 0 0 0 0 0 0 0 0 0 0 0 0 0 0 0 -0 -0 -0 -0 -0 0 0 0 0 0 0 0 0 0 0 0 0 0 0 0
0 0 0 0 0 0 0 0 0 0 0 0 0 0 0 0 0 0 0 0 0 0 0 -0 -0 -0 -0 0 0 0 0 0 0 0 0 0 0 0 0 0 0 0 0
0 0 0 0 0 0 0 0 0 0 0 0 0 0 0 0 0 0 0 0 0 0 0 0 0 0 0 0 0 0 0 0 0 0 0 0 0 0 0 0 0 0 0
Wind_Speed_500mb
68 65 68 66 65 55 53 48 43 38 30 25 20 16 12 8 7 7 10 10 16 19 17 17 21 26 26 27 26 26 24 26 30 33 34 38 40 42 34 35 36 28 32
71 74 75 69 64 64 56 50 45 44 38 32 27 20 12 7 9 13 16 19 22 24 26 27 27 30 33 32 33 33 36 36 42 49 47 47 45 36 34 29 26 31 39
73 72 68 68 65 62 60 57 49 42 37 30 24 18 13 12 15 20 25 25 25 27 29 31 29 27 31 31 33 38 42 45 45 45 48 44 45 47 47 42 35 25 30
74 72 68 66 67 65 60 53 47 39 30 21 16 11 12 17 17 22 28 33 37 38 34 22 19 22 25 27 35 41 44 43 44 43 41 40 37 39 44 53 56 51 46
82 77 73 69 65 61 55 47 36 28 21 13 9 13 16 19 24 28 35 41 40 31 12 7 13 16 22 29 31 41 45 44 36 39 41 45 48 48 48 53 57 61 64
83 78 71 63 57 51 44 36 27 19 10 7 11 14 19 25 29 32 30 22 17 15 11 10 18 23 31 39 42 34 34 30 30 32 37 41 44 44 47 50 55 62 65
79 70 63 56 50 41 32 24 17 10 5 7 9 14 16 19 21 19 16 14 18 16 10 7 17 27 27 30 38 37 31 18 20 28 35 38 46 47 50 52 51 54 61
71 65 59 47 38 29 21 14 9 6 3 3 5 8 11 12 14 17 16 15 20 17 17 14 17 22 29 37 40 29 24 17 16 22 30 33 33 34 35 37 44 50 55
67 56 45 36 30 21 16 13 13 9 7 5 4 6 9 11 12 11 12 17 13 7 15 17 18 23 32 36 30 31 25 17 20 21 24 28 27 31 30 40 47 56 69
49 40 31 24 19 17 15 14 16 12 11 8 11 11 12 13 11 13 15 15 12 3 8 10 17 26 30 27 30 33 33 36 34 26 26 33 33 39 38 45 54 61 66
36 29 24 19 16 14 15 15 14 16 17 17 20 20 20 17 18 20 18 18 17 12 8 9 16 18 23 26 27 28 31 35 36 37 41 42 46 49 51 50 50 57 66
29 29 22 15 13 11 20 26 28 28 29 25 19 19 17 19 24 25 22 20 17 18 21 21 20 18 22 23 20 23 32 37 43 45 48 52 56 58 58 55 52 50 57
23 20 18 16 19 26 25 33 33 33 27 22 15 12 6 13 19 18 20 24 21 28 26 23 18 14 14 20 27 33 36 41 46 52 56 56 59 60 58 52 46 48 52
17 16 14 9 14 20 22 21 25 28 29 23 17 14 2 9 13 18 22 24 25 23 14 11 12 20 18 24 33 40 43 44 49 52 56 57 55 52 47 44 50 53 48
3 4 4 12 16 17 19 22 22 22 17 14 15 11 11 13 17 20 20 25 19 16 12 13 17 29 33 42 50 50 51 52 58 58 57 56 53 51 49 51 48 51 53
13 13 10 15 14 20 21 25 24 18 16 18 17 16 19 21 19 19 20 18 19 17 23 34 40 44 49 55 58 59 62 65 66 60 52 50 53 56 58 54 54 57 55
17 25 18 13 23 24 22 19 18 26 23 21 21 21 22 22 23 26 25 25 24 27 44 51 54 57 59 59 58 55 57 57 53 48 47 51 58 64 64 61 61 60 57
19 27 27 23 21 20 19 20 22 24 26 30 28 33 30 29 30 31 33 31 39 43 53 53 50 48 43 42 46 46 51 50 49 46 52 55 62 70 73 70 66 64 62
31 33 29 26 21 18 20 21 19 20 22 30 38 37 34 35 43 43 42 45 44 47 43 37 30 33 36 44 45 49 49 51 51 50 56 58 63 72 78 78 69 62 58
32 29 26 23 21 21 20 19 22 24 19 18 29 26 26 30 33 35 33 33 35 33 34 28 31 37 40 44 48 51 49 51 52 50 56 59 64 67 77 83 77 69 57
32 26 26 28 24 18 19 19 31 27 31 35 38 31 24 26 25 25 24 24 24 24 22 24 33 40 41 44 49 51 49 50 51 47 52 58 62 64 70 76 78 71 70
32 33 31 26 25 22 24 31 30 27 27 33 32 28 22 20 22 22 20 21 19 20 17 20 31 41 43 45 49 51 51 49 49 47 46 53 59 66 67 68 77 73 65
38 33 29 26 25 26 25 27 30 29 31 29 22 18 16 25 27 21 18 18 16 18 19 18 29 36 41 42 45 50 53 52 47 46 43 48 55 65 62 66 70 76 68
44 33 20 25 33 28 35 34 33 30 28 22 19 18 18 22 20 20 20 15 11 14 20 22 28 33 39 41 43 46 49 48 47 43 33 43 51 55 61 66 65 73 77
43 39 37 30 30 26 32 36 33 31 31 28 25 21 19 17 17 16 14 13 12 11 16 22 25 30 36 38 41 43 45 44 45 41 31 36 39 49 57 62 61 65 78
38 30 35 39 39 38 38 36 32 30 29 27 24 20 20 16 12 15 11 9 6 5 14 19 24 27 32 35 39 42 42 43 43 39 35 31 35 46 56 59 57 63 72
Wind_Direction_500mb
177 181 186 186 189 185 180 182 175 172 173 166 160 160 158 137 138 185 218 225 270 278 273 281 286 291 290 288 296 301 300 307 310 305 303 306 314 325 325 325 320 297 269
175 173 170 170 175 174 173 162 157 150 148 147 151 159 168 202 244 258 277 287 285 289 298 295 295 300 302 303 298 296 295 296 304 306 302 300 304 306 307 303 295 293 297
168 173 164 162 167 159 157 157 158 158 158 158 168 180 195 235 266 281 284 285 293 301 304 306 306 304 307 303 303 302 303 304 304 306 306 302 294 291 290 287 290 285 265
165 164 162 156 154 155 157 155 155 154 154 163 184 204 254 261 274 278 283 291 295 300 306 303 303 304 296 303 302 305 307 310 314 312 311 309 305 299 299 302 291 284 283
156 153 150 151 152 150 150 150 151 154 158 169 232 257 272 291 296 299 303 307 311 312 297 288 321 322 326 322 317 311 317 322 325 327 328 329 328 329 330 320 314 306 296
144 146 147 147 147 146 147 146 150 151 159 216 255 279 294 307 316 325 329 344 359 14 31 10 325 307 308 309 315 324 331 329 331 325 323 323 323 325 324 325 324 324 325
134 134 137 140 142 143 143 146 147 147 153 243 287 304 323 331 345 356 15 9 13 12 350 331 312 324 334 342 340 334 328 312 302 308 313 320 322 325 322 321 322 320 317
123 131 135 140 141 140 140 139 128 129 190 258 329 353 11 17 46 44 52 34 51 46 30 12 337 332 334 333 339 350 2 2 339 320 321 326 328 341 340 330 323 320 318
134 139 144 146 143 143 141 133 140 161 149 109 70 40 62 69 61 49 30 10 27 39 31 12 347 335 341 338 349 349 1 10 7 0 346 339 320 329 335 335 342 338 328
136 136 140 136 139 144 135 135 147 155 133 123 116 89 88 78 58 26 13 16 28 103 50 0 340 336 333 353 358 2 1 3 353 343 328 322 327 331 334 331 330 327 327
121 122 126 117 120 127 135 143 163 145 137 112 88 71 54 39 34 24 17 16 18 8 36 331 334 351 9 9 6 360 349 340 334 330 333 332 325 323 322 321 319 318 316
110 121 128 118 107 139 138 128 115 106 97 97 90 72 32 11 17 16 17 14 7 22 31 22 20 23 16 13 349 338 328 327 329 328 325 326 325 323 321 321 320 320 319
106 110 117 125 130 122 122 136 129 116 117 129 102 76 31 357 6 21 29 25 47 63 56 47 36 9 350 338 331 329 329 335 339 334 334 330 323 322 321 323 329 331 330
95 124 134 130 135 148 149 140 142 144 149 153 149 153 247 13 39 42 42 49 65 72 60 31 354 345 342 340 343 350 352 355 357 353 349 344 343 344 349 349 342 344 340
160 155 151 124 143 150 142 135 143 145 136 143 137 115 78 62 51 43 47 57 53 42 10 342 10 22 16 16 19 22 20 15 7 5 359 354 357 1 0 358 352 350 352
156 176 148 127 122 126 115 117 120 125 135 131 104 83 67 56 48 49 58 46 36 36 40 38 36 40 38 30 24 19 16 11 4 5 8 7 6 8 8 7 5 2 359
164 175 159 123 120 111 96 89 112 115 120 112 94 78 71 61 53 46 47 47 46 55 62 51 42 34 28 21 15 11 7 0 4 14 14 15 17 18 14 12 9 7 4
168 152 138 129 122 113 105 108 108 106 100 93 96 80 72 68 61 63 59 65 75 65 53 42 34 30 22 10 7 12 12 18 21 21 19 21 21 20 19 15 12 7 3
134 132 134 140 146 143 132 119 106 97 103 101 93 84 69 64 65 61 57 59 72 62 54 48 24 11 13 17 20 25 26 28 26 23 22 24 23 23 21 19 12 9 10
144 152 148 159 154 154 147 149 134 117 112 111 109 91 92 64 69 67 60 48 56 59 58 33 16 16 20 22 24 27 29 29 29 29 25 25 23 19 20 17 15 12 9
151 148 143 146 141 130 125 113 126 107 98 110 112 107 102 89 80 83 75 64 50 43 55 20 21 19 22 22 24 26 27 27 25 25 28 26 22 19 20 14 10 15 15
155 146 140 138 147 148 127 111 113 105 97 104 112 117 117 108 96 89 77 67 51 31 43 10 23 21 19 19 19 21 23 22 18 21 26 27 26 25 20 15 10 10 14
150 148 142 150 143 129 128 126 133 130 120 124 125 124 123 108 100 91 77 71 47 22 23 2 17 17 18 20 20 19 18 17 16 13 23 25 28 28 21 19 13 11 14
154 149 159 166 155 162 155 147 146 146 142 137 130 120 111 117 120 112 95 72 55 13 13 357 13 14 14 17 20 21 20 16 13 14 25 31 30 25 24 24 18 12 15
153 147 152 161 167 164 156 148 143 141 138 139 137 140 134 120 119 133 122 102 61 11 359 354 5 14 15 15 19 21 19 19 17 18 28 37 31 28 28 26 22 15 13
143 133 153 147 148 150 152 151 151 156 159 159 161 161 155 159 140 130 150 131 136 351 344 358 2 15 16 17 20 19 19 19 19 21 24 32 32 32 29 27 22 19 12
Wind_Speed_850mb
68 65 68 66 65 55 53 48 43 38 30 25 20 16 12 8 7 7 10 10 16 19 17 17 21 26 26 27 26 26 24 26 30 33 34 38 40 42 34 35 36 28 32
71 74 75 69 64 64 56 50 45 44 38 32 27 20 12 7 9 13 16 19 22 24 26 27 27 30 33 32 33 33 36 36 42 49 47 47 45 36 34 29 26 31 39
73 72 68 68 65 62 60 57 49 42 37 30 24 18 13 12 15 20 25 25 25 27 29 31 29 27 31 31 33 38 42 45 45 45 48 44 45 47 47 42 35 25 30
74 72 68 66 67 65 60 53 47 39 30 21 16 11 12 17 17 22 28 33 37 38 34 22 19 22 25 27 35 41 44 43 44 43 41 40 37 39 44 53 56 51 46
82 77 73 69 65 61 55 47 36 28 21 13 9 13 16 19 24 28 35 41 40 31 12 7 13 16 22 29 31 41 45 44 36 39 41 45 48 48 48 53 57 61 64
83 78 71 63 57 51 44 36 27 19 10 7 11 14 19 25 29 32 30 22 17 15 11 10 18 23 31 39 42 34 34 30 30 32 37 41 44 44 47 50 55 62 65
79 70 63 56 50 41 32 24 17 10 5 7 9 14 16 19 21 19 16 14 18 16 10 7 17 27 27 30 38 37 31 18 20 28 35 38 46 47 50 52 51 54 61
71 65 59 47 38 29 21 14 9 6 3 3 5 8 11 12 14 17 16 15 20 17 17 14 17 22 29 37 40 29 24 17 16 22 30 33 33 34 35 37 44 50 55
67 56 45 36 30 21 16 13 13 9 7 5 4 6 9 11 12 11 12 17 13 7 15 17 18 23 32 36 30 31 25 17 20 21 24 28 27 31 30 40 47 56 69
49 40 31 24 19 17 15 14 16 12 11 8 11 11 12 13 11 13 15 15 12 3 8 10 17 26 30 27 30 33 33 36 34 26 26 33 33 39 38 45 54 61 66
36 29 24 19 16 14 15 15 14 16 17 17 20 20 20 17 18 20 18 18 17 12 8 9 16 18 23 26 27 28 31 35 36 37 41 42 46 49 51 50 50 57 66
29 29 22 15 13 11 20 26 28 28 29 25 19 19 17 19 24 25 22 20 17 18 21 21 20 18 22 23 20 23 32 37 43 45 48 52 56 58 58 55 52 50 57
23 20 18 16 19 26 25 33 33 33 27 22 15 12 6 13 19 18 20 24 21 28 26 23 18 14 14 20 27 33 36 41 46 52 56 56 59 60 58 52 46 48 52
17 16 14 9 14 20 22 21 25 28 29 23 17 14 2 9 13 18 22 24 25 23 14 11 12 20 18 24 33 40 43 44 49 52 56 57 55 52 47 44 50 53 48
3 4 4 12 16 17 19 22 22 22 17 14 15 11 11 13 17 20 20 25 19 16 12 13 17 29 33 42 50 50 51 52 58 58 57 56 53 51 49 51 48 51 53
13 13 10 15 14 20 21 25 24 18 16 18 17 16 19 21 19 19 20 18 19 17 23 34 40 44 49 55 58 59 62 65 66 60 52 50 53 56 58 54 54 57 55
17 25 18 13 23 24 22 19 18 26 23 21 21 21 22 22 23 26 25 25 24 27 44 51 54 57 59 59 58 55 57 57 53 48 47 51 58 64 64 61 61 60 57
19 27 27 23 21 20 19 20 22 24 26 30 28 33 30 29 30 31 33 31 39 43 53 53 50 48 43 42 46 46 51 50 49 46 52 55 62 70 73 70 66 64 62
31 33 29 26 21 18 20 21 19 20 22 30 38 37 34 35 43 43 42 45 44 47 43 37 30 33 36 44 45 49 49 51 51 50 56 58 63 72 78 78 69 62 58
32 29 26 23 21 21 20 19 22 24 19 18 29 26 26 30 33 35 33 33 35 33 34 28 31 37 40 44 48 51 49 51 52 50 56 59 64 67 77 83 77 69 57
32 26 26 28 24 18 19 19 31 27 31 35 38 31 24 26 25 25 24 24 24 24 22 24 33 40 41 44 49 51 49 50 51 47 52 58 62 64 70 76 78 71 70
32 33 31 26 25 22 24 31 30 27 27 33 32 28 22 20 22 22 20 21 19 20 17 20 31 41 43 45 49 51 51 49 49 47 46 53 59 66 67 68 77 73 65
38 33 29 26 25 26 25 27 30 29 31 29 22 18 16 25 27 21 18 18 16 18 19 18 29 36 41 42 45 50 53 52 47 46 43 48 55 65 62 66 70 76 68
44 33 20 25 33 28 35 34 33 30 28 22 19 18 18 22 20 20 20 15 11 14 20 22 28 33 39 41 43 46 49 48 47 43 33 43 51 55 61 66 65 73 77
43 39 37 30 30 26 32 36 33 31 31 28 25 21 19 17 17 16 14 13 12 11 16 22 25 30 36 38 41 43 45 44 45 41 31 36 39 49 57 62 61 65 78
38 30 35 39 39 38 38 36 32 30 29 27 24 20 20 16 12 15 11 9 6 5 14 19 24 27 32 35 39 42 42 43 43 39 35 31 35 46 56 59 57 63 72
Wind_Direction_850mb
177 181 186 186 189 185 180 182 175 172 173 166 160 160 158 137 138 185 218 225 270 278 273 281 286 291 290 288 296 301 300 307 310 305 303 306 314 325 325 325 320 297 269
175 173 170 170 175 174 173 162 157 150 148 147 151 159 168 202 244 258 277 287 285 289 298 295 295 300 302 303 298 296 295 296 304 306 302 300 304 306 307 303 295 293 297
168 173 164 162 167 159 157 157 158 158 158 158 168 180 195 235 266 281 284 285 293 301 304 306 306 304 307 303 303 302 303 304 304 306 306 302 294 291 290 287 290 285 265
165 164 162 156 154 155 157 155 155 154 154 163 184 204 254 261 274 278 283 291 295 300 306 303 303 304 296 303 302 305 307 310 314 312 311 309 305 299 299 302 291 284 283
156 153 150 151 152 150 150 150 151 154 158 169 232 257 272 291 296 299 303 307 311 312 297 288 321 322 326 322 317 311 317 322 325 327 328 329 328 329 330 320 314 306 296
144 146 147 147 147 146 147 146 150 151 159 216 255 279 294 307 316 325 329 344 359 14 31 10 325 307 308 309 315 324 331 329 331 325 323 323 323 325 324 325 324 324 325
134 134 137 140 142 143 143 146 147 147 153 243 287 304 323 331 345 356 15 9 13 12 350 331 312 324 334 342 340 334 328 312 302 308 313 320 322 325 322 321 322 320 317
123 131 135 140 141 140 140 139 128 129 190 258 329 353 11 17 46 44 52 34 51 46 30 12 337 332 334 333 339 350 2 2 339 320 321 326 328 341 340 330 323 320 318
134 139 144 146 143 143 141 133 140 161 149 109 70 40 62 69 61 49 30 10 27 39 31 12 347 335 341 338 349 349 1 10 7 0 346 339 320 329 335 335 342 338 328
136 136 140 136 139 144 135 135 147 155 133 123 116 89 88 78 58 26 13 16 28 103 50 0 340 336 333 353 358 2 1 3 353 343 328 322 327 331 334 331 330 327 327
121 122 126 117 120 127 135 143 163 145 137 112 88 71 54 39 34 24 17 16 18 8 36 331 334 351 9 9 6 360 349 340 334 330 333 332 325 323 322 321 319 318 316
110 121 128 118 107 139 138 128 115 106 97 97 90 72 32 11 17 16 17 14 7 22 31 22 20 23 16 13 349 338 328 327 329 328 325 326 325 323 321 321 320 320 319
106 110 117 125 130 122 122 136 129 116 117 129 102 76 31 357 6 21 29 25 47 63 56 47 36 9 350 338 331 329 329 335 339 334 334 330 323 322 321 323 329 331 330
95 124 134 130 135 148 149 140 142 144 149 153 149 153 247 13 39 42 42 49 65 72 60 31 354 345 342 340 343 350 352 355 357 353 349 344 343 344 349 349 342 344 340
160 155 151 124 143 150 142 135 143 145 136 143 137 115 78 62 51 43 47 57 53 42 10 342 10 22 16 16 19 22 20 15 7 5 359 354 357 1 0 358 352 350 352
156 176 148 127 122 126 115 117 120 125 135 131 104 83 67 56 48 49 58 46 36 36 40 38 36 40 38 30 24 19 16 11 4 5 8 7 6 8 8 7 5 2 359
164 175 159 123 120 111 96 89 112 115 120 112 94 78 71 61 53 46 47 47 46 55 62 51 42 34 28 21 15 11 7 0 4 14 14 15 17 18 14 12 9 7 4
168 152 138 129 122 113 105 108 108 106 100 93 96 80 72 68 61 63 59 65 75 65 53 42 34 30 22 10 7 12 12 18 21 21 19 21 21 20 19 15 12 7 3
134 132 134 140 146 143 132 119 106 97 103 101 93 84 69 64 65 61 57 59 72 62 54 48 24 11 13 17 20 25 26 28 26 23 22 24 23 23 21 19 12 9 10
144 152 148 159 154 154 147 149 134 117 112 111 109 91 92 64 69 67 60 48 56 59 58 33 16 16 20 22 24 27 29 29 29 29 25 25 23 19 20 17 15 12 9
151 148 143 146 141 130 125 113 126 107 98 110 112 107 102 89 80 83 75 64 50 43 55 20 21 19 22 22 24 26 27 27 25 25 28 26 22 19 20 14 10 15 15
155 146 140 138 147 148 127 111 113 105 97 104 112 117 117 108 96 89 77 67 51 31 43 10 23 21 19 19 19 21 23 22 18 21 26 27 26 25 20 15 10 10 14
150 148 142 150 143 129 128 126 133 130 120 124 125 124 123 108 100 91 77 71 47 22 23 2 17 17 18 20 20 19 18 17 16 13 23 25 28 28 21 19 13 11 14
154 149 159 166 155 162 155 147 146 146 142 137 130 120 111 117 120 112 95 72 55 13 13 357 13 14 14 17 20 21 20 16 13 14 25 31 30 25 24 24 18 12 15
153 147 152 161 167 164 156 148 143 141 138 139 137 140 134 120 119 133 122 102 61 11 359 354 5 14 15 15 19 21 19 19 17 18 28 37 31 28 28 26 22 15 13
143 133 153 147 148 150 152 151 151 156 159 159 161 161 155 159 140 130 150 131 136 351 344 358 2 15 16 17 20 19 19 19 19 21 24 32 32 32 29 27 22 19 12